Weather History for Spirit of St Louis, MO

Change the Weather History Date:

Tuesday, January 29, 2013

  Actual Average Record
Temperature  
Mean Temperature 60 °F -  
Max Temperature 68 °F 39 °F 36 °F (2014)
Min Temperature 53 °F 21 °F 1 °F (2014)
Degree Days  
Heating Degree Days 4    
Growing Degree Days 10 (Base 50)    
Moisture  
Dew Point 55 °F    
Average Humidity 86    
Maximum Humidity 100    
Minimum Humidity 70    
Precipitation  
Precipitation 1.29 in - - ()
Sea Level Pressure  
Sea Level Pressure 29.58 in    
Wind  
Wind Speed 9 mph (SW)    
Max Wind Speed 28 mph    
Max Gust Speed 37 mph    
Visibility 6 miles    
Events Rain , Thunderstorm    
Averages and records for this station are not official NWS values.
T = Trace of Precipitation, MM = Missing Value Source: NWS Daily Summary

Daily Weather History Graph

Daily Weather History Graph

Search for Another Location

Airport:

Trip Planner

Search our weather history database for the weather conditions in past years. The results will help you decide how hot, cold, wet, or windy it might be!

Date:

Astronomy

Jan. 29, 2013 Rise Set
Actual Time 7:10 AM CST 5:21 PM CST
Civil Twilight 6:42 AM CST 5:49 PM CST
Nautical Twilight 6:10 AM CST 6:21 PM CST
Astronomical Twilight 5:39 AM CST 6:52 PM CST
Moon 8:15 PM CST (1/29) 8:10 AM CST (1/29)
Length of Visible Light 11h 07m
Length of Day
10h 10m
Waning Gibbous, 93% of the Moon is Illuminated
Jan 29
Waning Gibbous
Feb 3
Last Quarter
Feb 10
New
Feb 17
First Quarter
Feb 25
Full

Hourly Weather History & Observations

Time (CST) Temp. Dew Point Humidity Pressure Visibility Wind Dir Wind Speed Gust Speed Precip Events Conditions
12:54 AM 64.9 °F 57.9 °F 78% 29.80 in 10.0 mi South 8.1 mph - N/A   Clear
1:54 AM 66.0 °F 57.9 °F 75% 29.78 in 10.0 mi South 8.1 mph - N/A   Clear
2:54 AM 66.0 °F 57.9 °F 75% 29.76 in 10.0 mi Variable 5.8 mph 17.3 mph N/A   Clear
3:54 AM 66.0 °F 57.9 °F 75% 29.75 in 10.0 mi South 9.2 mph - N/A   Clear
4:54 AM 66.0 °F 57.9 °F 75% 29.74 in 10.0 mi SSW 9.2 mph 16.1 mph N/A   Mostly Cloudy
5:54 AM 66.0 °F 57.9 °F 75% 29.73 in 10.0 mi Variable 4.6 mph - N/A   Mostly Cloudy
6:54 AM 66.0 °F 57.9 °F 75% 29.73 in 10.0 mi South 8.1 mph - N/A   Mostly Cloudy
7:54 AM 66.0 °F 57.9 °F 75% 29.72 in 10.0 mi SSW 8.1 mph - N/A   Overcast
8:54 AM 66.9 °F 57.9 °F 73% 29.70 in 10.0 mi South 10.4 mph - N/A   Mostly Cloudy
9:54 AM 68.0 °F 57.9 °F 70% 29.69 in 10.0 mi SSW 9.2 mph 18.4 mph N/A   Mostly Cloudy
10:54 AM 68.0 °F 57.9 °F 70% 29.67 in 10.0 mi South 15.0 mph 29.9 mph N/A   Overcast
11:54 AM 64.9 °F 59.0 °F 81% 29.64 in 5.0 mi South 9.2 mph 19.6 mph 0.00 in Rain Light Rain
12:54 PM 64.0 °F 60.1 °F 87% 29.57 in 5.0 mi South 8.1 mph - 0.01 in Rain Light Rain
1:54 PM 66.9 °F 59.0 °F 76% 29.50 in 10.0 mi South 13.8 mph 24.2 mph 0.00 in   Overcast
2:54 PM 66.9 °F 59.0 °F 76% 29.49 in 9.0 mi South 10.4 mph - 0.00 in Rain Light Rain
3:49 PM 68.0 °F 59.0 °F 73% 29.45 in 10.0 mi South 16.1 mph 23.0 mph 0.00 in Rain Light Rain
3:54 PM 68.0 °F 57.9 °F 70% 29.44 in 10.0 mi South 12.7 mph 23.0 mph 0.00 in Rain Light Rain
4:10 PM 59.0 °F 55.4 °F 88% 29.49 in 2.0 mi NW 24.2 mph 36.8 mph 0.08 in Rain Heavy Rain
4:12 PM 57.2 °F 53.6 °F 88% 29.49 in 1.5 mi NW 23.0 mph 36.8 mph 0.10 in Rain Heavy Rain
4:16 PM 57.2 °F 53.6 °F 88% 29.49 in 1.0 mi NW 27.6 mph 35.7 mph 0.13 in Rain Heavy Rain
4:33 PM 55.4 °F 53.6 °F 94% 29.51 in 2.0 mi NW 10.4 mph 25.3 mph 0.29 in Rain Heavy Rain
4:40 PM 55.4 °F 53.6 °F 94% 29.52 in 3.0 mi NNW 11.5 mph 18.4 mph 0.32 in Rain Rain
4:54 PM 55.9 °F 53.1 °F 90% 29.53 in 4.0 mi West 8.1 mph - 0.36 in Rain Rain
5:03 PM 55.4 °F 53.6 °F 94% 29.56 in 2.5 mi West 5.8 mph - 0.06 in Rain Heavy Rain
5:12 PM 55.4 °F 53.6 °F 94% 29.55 in 3.0 mi West 4.6 mph - 0.09 in Rain Rain
5:26 PM 55.4 °F 53.6 °F 94% 29.55 in 2.5 mi West 3.5 mph - 0.15 in Rain Rain
5:54 PM 55.0 °F 53.1 °F 93% 29.49 in 5.0 mi Calm Calm - 0.23 in Rain Rain
6:54 PM 55.0 °F 53.1 °F 93% 29.50 in 5.0 mi Calm Calm - 0.12 in Rain Light Rain
7:05 PM 53.6 °F 53.6 °F 100% 29.54 in 2.0 mi West 6.9 mph - 0.06 in Rain Heavy Rain
7:18 PM 53.6 °F 53.6 °F 100% 29.52 in 2.0 mi WNW 5.8 mph - 0.15 in Rain Heavy Rain
7:28 PM 55.4 °F 53.6 °F 94% 29.54 in 3.0 mi West 3.5 mph - 0.18 in Rain Rain
7:38 PM 53.6 °F 53.6 °F 100% 29.54 in 5.0 mi West 5.8 mph - 0.20 in Rain Light Rain
7:54 PM 54.0 °F 53.1 °F 97% 29.53 in 4.0 mi WSW 5.8 mph - 0.24 in Rain Rain
8:01 PM 53.6 °F 53.6 °F 100% 29.55 in 4.0 mi WSW 5.8 mph - 0.01 in Rain , Thunderstorm Light Thunderstorms and Rain
8:54 PM 54.0 °F 52.0 °F 93% 29.54 in 3.0 mi West 4.6 mph - 0.21 in Rain , Thunderstorm Thunderstorms and Rain
9:25 PM 53.6 °F 51.8 °F 94% 29.51 in 2.5 mi Calm Calm - 0.04 in Rain Light Rain
9:54 PM 53.1 °F 52.0 °F 96% 29.50 in 3.0 mi SSE 3.5 mph - 0.06 in Rain Light Rain
10:54 PM 54.0 °F 52.0 °F 93% 29.44 in 9.0 mi ESE 5.8 mph - 0.06 in Rain Light Rain
11:54 PM 53.6 °F 51.8 °F 94% 29.43 in 10.0 mi SE 6.9 mph - N/A Rain Light Rain